Temp
85 88 79 80 80 80 80 80 80 79 79 79 78 79 78 78 78 78 78 78 78 79 80 80 79 80 79 78 77 77 77 76 76 75 75 76 77 77 77 76 77 83 77
88 89 79 80 80 80 80 80 79 78 78 78 78 78 78 78 78 78 78 79 79 79 79 78 79 78 79 77 77 76 76 75 75 74 74 74 75 77 76 76 76 80 77
88 89 86 79 79 79 79 79 78 78 78 78 78 78 78 78 78 78 78 78 77 79 79 77 78 78 77 77 76 76 76 75 74 73 74 83 81 76 76 76 76 77 77
89 89 89 79 79 79 79 78 78 78 78 78 78 78 78 78 78 78 78 78 77 77 77 77 77 76 76 76 76 76 75 74 73 73 83 84 84 76 76 76 76 76 76
88 90 88 79 79 79 78 78 78 78 78 78 78 77 77 77 77 78 78 77 76 76 76 76 76 76 76 76 76 75 75 74 73 78 82 82 82 78 77 76 76 76 76
89 90 82 79 79 78 78 78 78 78 78 78 78 77 77 77 77 77 76 75 75 75 75 75 75 75 75 75 75 75 74 73 73 82 82 79 82 77 77 76 76 75 76
88 90 87 78 78 77 77 77 78 78 78 78 78 77 77 77 76 76 75 74 75 75 75 75 75 75 75 75 74 74 72 71 82 82 82 82 81 77 77 76 76 76 75
87 87 86 77 77 76 77 77 77 77 77 77 77 77 77 77 76 75 75 74 75 75 75 75 75 75 74 74 74 73 71 72 79 82 81 82 76 77 76 75 75 75 75
87 87 86 84 80 74 75 75 76 77 77 77 76 77 76 75 75 75 74 75 75 75 75 75 74 74 74 74 73 72 69 70 83 82 82 84 75 76 75 75 75 74 74
85 86 87 87 85 84 83 74 74 75 75 76 75 74 73 72 73 74 73 74 74 75 74 74 74 74 73 72 71 69 68 70 81 80 83 81 75 75 74 74 74 73 73
81 85 86 87 86 85 85 80 74 73 73 73 73 71 72 82 80 76 73 72 73 74 74 73 73 72 70 69 69 68 68 83 83 83 84 73 74 75 74 73 73 72 72
73 81 85 85 85 84 84 84 84 84 83 83 82 81 84 84 84 82 74 70 72 73 72 73 71 70 71 80 77 69 83 81 82 82 81 73 74 74 73 72 71 71 71
75 77 80 81 84 84 83 84 84 85 84 85 84 84 84 83 82 81 79 78 79 71 79 76 74 79 79 80 79 81 80 80 83 81 75 72 73 73 72 71 71 70 70
75 76 77 78 78 82 84 83 84 83 83 83 84 84 83 82 81 82 81 80 81 81 80 79 80 78 77 77 79 79 78 79 81 80 75 70 72 72 71 71 70 70 69
76 77 78 78 77 79 81 83 84 83 82 83 82 83 83 82 81 81 81 78 81 81 80 79 78 78 78 77 77 77 77 78 78 79 78 67 69 71 71 70 70 69 69
81 79 78 77 78 78 77 76 81 83 84 83 82 81 81 82 81 80 79 76 79 80 80 79 78 78 77 77 76 76 76 77 77 77 78 73 67 69 69 70 69 69 69
85 85 84 82 81 78 77 76 76 80 83 82 82 82 81 81 80 80 80 78 79 79 79 78 77 77 76 75 75 75 75 76 75 75 75 75 70 65 68 69 68 68 68
83 83 86 85 83 81 79 77 77 77 78 81 82 80 81 81 80 79 79 79 80 78 77 76 75 73 74 73 73 73 73 73 74 74 73 73 72 72 66 67 67 67 66
83 83 82 83 84 83 83 77 74 78 76 80 81 80 80 80 79 79 79 79 79 77 75 74 73 74 72 71 71 71 71 71 71 71 71 70 70 70 71 64 64 63 64
82 82 83 83 83 84 84 77 72 71 75 74 79 80 79 79 78 77 78 78 78 76 74 73 72 72 72 71 70 68 68 70 70 70 70 70 69 67 68 67 65 64 60
78 78 78 79 80 82 81 73 70 68 70 70 71 77 80 78 77 76 76 77 77 74 73 72 72 69 66 70 65 65 65 66 67 68 69 69 67 66 67 66 67 67 63
75 76 76 77 77 78 80 80 78 76 74 74 71 70 75 78 77 76 75 74 76 74 73 71 71 67 67 66 65 65 59 61 63 65 66 67 67 66 65 65 65 64 64
71 71 72 73 74 75 77 78 78 78 76 73 70 70 70 75 76 75 74 73 73 73 72 70 69 66 62 62 67 68 57 58 60 62 62 63 64 64 64 64 63 62 62
68 68 68 69 70 72 73 73 74 74 71 74 75 74 73 70 72 74 74 74 71 71 71 70 67 67 67 61 61 61 62 66 60 54 58 60 63 62 63 62 62 61 60
67 66 68 69 70 70 71 72 73 73 75 76 76 74 75 73 69 69 70 71 71 70 69 69 66 65 67 66 61 56 58 59 60 61 56 54 58 60 62 61 60 60 58
67 67 67 69 70 70 69 70 71 72 73 73 73 72 73 71 68 67 67 68 69 69 68 68 66 63 63 65 60 58 60 59 58 59 60 58 56 57 58 59 58 58 56
MSLP
1012.42 1012.81 1013.83 1014.15 1014.50 1014.81 1015.10 1015.31 1015.54 1015.87 1016.16 1016.41 1016.76 1016.90 1017.06 1017.20 1017.30 1017.45 1017.48 1017.42 1017.38 1017.37 1017.30 1017.43 1017.61 1017.70 1017.89 1018.13 1018.30 1018.38 1018.47 1018.51 1018.57 1018.51 1018.43 1018.37 1018.36 1018.42 1018.47 1018.48 1018.18 1017.71 1018.18
1012.22 1012.74 1013.92 1014.17 1014.54 1014.94 1015.23 1015.52 1015.79 1016.08 1016.31 1016.66 1017.01 1017.17 1017.31 1017.44 1017.52 1017.58 1017.62 1017.57 1017.49 1017.48 1017.51 1017.69 1017.73 1018.03 1018.15 1018.41 1018.55 1018.66 1018.73 1018.83 1018.90 1018.94 1018.74 1018.61 1018.63 1018.64 1018.68 1018.65 1018.43 1018.32 1018.45
1012.34 1012.79 1013.77 1014.28 1014.63 1015.02 1015.35 1015.68 1016.04 1016.35 1016.56 1016.82 1017.10 1017.35 1017.52 1017.64 1017.75 1017.76 1017.80 1017.81 1017.71 1017.59 1017.74 1017.96 1018.18 1018.35 1018.52 1018.70 1018.78 1018.85 1018.92 1019.02 1019.07 1019.03 1018.75 1018.22 1018.54 1018.84 1018.83 1018.80 1018.68 1018.68 1018.69
1012.45 1012.94 1013.52 1014.46 1014.81 1015.12 1015.47 1015.86 1016.20 1016.43 1016.66 1016.99 1017.28 1017.53 1017.76 1017.90 1017.96 1017.99 1018.02 1018.08 1018.07 1018.16 1018.34 1018.50 1018.61 1018.78 1018.87 1018.97 1019.02 1019.07 1019.08 1019.15 1019.24 1019.03 1018.37 1018.31 1018.31 1018.98 1018.92 1018.89 1018.85 1018.83 1018.85
1012.78 1013.08 1013.60 1014.48 1014.93 1015.28 1015.65 1015.97 1016.27 1016.56 1016.82 1017.13 1017.38 1017.66 1017.92 1018.08 1018.21 1018.27 1018.30 1018.37 1018.59 1018.66 1018.80 1018.93 1019.03 1019.06 1019.13 1019.20 1019.27 1019.28 1019.31 1019.38 1019.38 1018.86 1018.70 1018.73 1018.61 1019.04 1018.99 1019.00 1018.82 1018.88 1018.91
1012.88 1013.26 1014.31 1014.85 1015.15 1015.53 1015.87 1016.17 1016.39 1016.73 1016.96 1017.22 1017.49 1017.80 1018.02 1018.19 1018.32 1018.48 1018.67 1018.80 1018.92 1019.04 1019.13 1019.20 1019.24 1019.31 1019.39 1019.42 1019.49 1019.51 1019.53 1019.50 1019.35 1018.93 1018.90 1019.12 1018.71 1019.29 1019.20 1019.30 1019.14 1019.04 1019.00
1013.11 1013.45 1014.43 1015.13 1015.48 1015.77 1016.11 1016.46 1016.63 1016.87 1017.10 1017.41 1017.67 1017.94 1018.17 1018.37 1018.55 1018.80 1019.01 1019.13 1019.20 1019.31 1019.40 1019.43 1019.48 1019.48 1019.52 1019.59 1019.66 1019.73 1019.75 1019.66 1018.91 1019.03 1019.02 1019.01 1019.19 1019.49 1019.45 1019.49 1019.54 1019.51 1019.48
1013.43 1013.80 1014.47 1015.32 1015.66 1016.05 1016.35 1016.66 1016.81 1017.06 1017.28 1017.48 1017.77 1018.03 1018.27 1018.53 1018.81 1019.03 1019.21 1019.32 1019.38 1019.41 1019.48 1019.55 1019.63 1019.69 1019.75 1019.80 1019.85 1019.97 1020.01 1019.80 1019.27 1019.14 1019.30 1019.26 1019.83 1019.73 1019.79 1019.92 1019.95 1019.97 1019.96
1013.59 1013.98 1014.65 1015.20 1015.72 1016.27 1016.53 1016.77 1016.90 1017.16 1017.39 1017.52 1017.75 1018.08 1018.43 1018.72 1018.94 1019.16 1019.37 1019.51 1019.51 1019.56 1019.59 1019.62 1019.71 1019.92 1019.93 1019.97 1020.03 1020.14 1020.21 1020.01 1019.22 1019.39 1019.45 1019.33 1019.98 1019.91 1020.12 1020.25 1020.35 1020.48 1020.44
1013.94 1013.97 1014.21 1014.67 1015.41 1015.88 1016.28 1016.85 1017.02 1017.23 1017.46 1017.55 1017.85 1018.06 1018.54 1018.90 1019.10 1019.29 1019.53 1019.60 1019.62 1019.58 1019.73 1019.83 1019.90 1020.07 1020.20 1020.22 1020.32 1020.43 1020.44 1020.11 1019.56 1019.75 1019.68 1019.77 1020.21 1020.21 1020.48 1020.62 1020.72 1020.79 1020.90
1014.23 1014.12 1014.20 1014.58 1015.18 1015.56 1015.93 1016.54 1017.18 1017.36 1017.45 1017.56 1017.86 1018.22 1018.60 1018.41 1018.86 1019.25 1019.20 1019.59 1019.72 1019.72 1019.84 1019.94 1020.05 1020.27 1020.39 1020.49 1020.59 1020.60 1020.47 1019.80 1019.71 1019.68 1019.58 1020.44 1020.47 1020.56 1020.74 1020.93 1021.10 1021.09 1021.26
1014.65 1014.32 1014.41 1014.58 1015.00 1015.47 1015.91 1016.14 1016.52 1016.64 1017.02 1017.08 1017.44 1017.77 1017.78 1017.88 1018.09 1018.44 1019.11 1019.62 1019.80 1019.94 1019.91 1020.08 1020.27 1020.42 1020.33 1019.91 1020.31 1020.64 1019.92 1020.00 1019.87 1019.82 1019.82 1020.64 1020.70 1020.83 1020.98 1021.23 1021.36 1021.44 1021.60
1014.58 1014.78 1014.82 1014.85 1014.90 1015.28 1015.62 1015.86 1016.04 1016.20 1016.51 1016.72 1016.90 1017.16 1017.41 1017.69 1018.16 1018.65 1018.70 1019.19 1019.28 1019.85 1019.49 1019.93 1020.24 1019.83 1019.85 1019.85 1020.02 1019.93 1020.14 1020.12 1019.89 1019.97 1020.46 1020.85 1020.88 1020.98 1021.25 1021.42 1021.53 1021.74 1021.78
1014.35 1014.56 1014.87 1015.03 1015.25 1015.21 1015.15 1015.51 1015.60 1016.03 1016.34 1016.53 1016.77 1017.00 1017.16 1017.41 1017.63 1017.77 1017.98 1018.46 1018.60 1018.97 1018.92 1019.27 1019.34 1019.75 1019.99 1020.02 1020.01 1019.97 1020.14 1020.10 1019.90 1019.99 1020.58 1021.02 1021.06 1021.28 1021.57 1021.68 1021.80 1021.97 1022.07
1013.91 1014.14 1014.44 1014.83 1015.06 1015.02 1015.00 1015.03 1015.23 1015.60 1016.03 1016.20 1016.62 1016.81 1017.01 1017.11 1017.25 1017.47 1017.70 1018.28 1018.29 1018.55 1018.70 1019.00 1019.26 1019.48 1019.72 1019.90 1020.05 1020.04 1020.02 1020.15 1020.13 1020.14 1020.35 1021.41 1021.33 1021.55 1021.77 1021.89 1021.97 1022.13 1022.25
1012.97 1013.42 1014.00 1014.32 1014.48 1014.68 1014.95 1015.25 1015.04 1015.06 1015.29 1015.75 1016.17 1016.48 1016.82 1016.82 1016.99 1017.14 1017.47 1017.98 1018.10 1018.36 1018.49 1018.71 1018.93 1019.13 1019.37 1019.72 1019.92 1020.07 1020.01 1020.15 1020.21 1020.29 1020.35 1021.29 1021.59 1021.83 1022.08 1022.14 1022.19 1022.22 1022.38
1012.15 1012.38 1012.82 1013.40 1013.77 1014.27 1014.60 1014.83 1015.07 1014.91 1014.87 1015.07 1015.42 1015.83 1016.27 1016.63 1016.69 1016.89 1016.85 1017.37 1017.61 1018.00 1018.28 1018.61 1018.87 1019.03 1019.30 1019.66 1019.81 1020.05 1020.22 1020.22 1020.42 1020.56 1020.72 1020.85 1021.78 1022.02 1022.17 1022.21 1022.39 1022.45 1022.56
1012.11 1012.17 1012.31 1012.66 1013.11 1013.57 1013.90 1014.06 1014.34 1014.64 1014.75 1014.69 1014.88 1015.23 1015.45 1015.97 1016.32 1016.52 1016.57 1016.73 1017.06 1017.48 1017.98 1018.41 1018.75 1019.02 1019.13 1019.41 1019.64 1019.94 1020.15 1020.44 1020.49 1020.65 1020.95 1021.03 1021.26 1021.50 1022.14 1022.37 1022.47 1022.58 1022.77
1011.74 1011.86 1012.07 1012.29 1012.37 1012.62 1012.90 1013.47 1013.86 1013.87 1014.34 1014.22 1014.32 1014.59 1014.78 1015.26 1015.81 1015.98 1016.07 1016.18 1016.61 1017.11 1017.65 1018.01 1018.38 1018.67 1018.99 1019.31 1019.49 1019.79 1020.09 1020.28 1020.53 1020.65 1020.87 1021.09 1021.34 1021.51 1021.59 1022.39 1022.58 1022.82 1022.90
1011.46 1011.50 1011.61 1011.83 1011.96 1012.05 1012.25 1013.01 1013.60 1013.88 1013.75 1013.84 1013.55 1013.62 1014.04 1014.42 1014.90 1015.41 1015.37 1015.81 1016.09 1016.64 1017.17 1017.56 1017.95 1018.47 1018.68 1018.97 1019.42 1019.77 1020.09 1020.22 1020.33 1020.47 1020.62 1021.00 1021.27 1021.65 1021.81 1022.09 1022.54 1022.72 1023.10
1011.45 1011.43 1011.53 1011.63 1011.81 1011.84 1011.80 1012.36 1012.90 1012.91 1013.08 1013.39 1013.33 1013.20 1013.36 1013.76 1014.07 1014.53 1014.59 1014.94 1015.30 1015.83 1016.42 1016.98 1017.41 1018.15 1018.79 1019.03 1019.49 1019.77 1020.08 1020.33 1020.26 1020.28 1020.37 1020.58 1020.99 1021.49 1021.58 1021.99 1022.21 1022.36 1022.79
1011.28 1011.29 1011.26 1011.31 1011.49 1011.51 1011.32 1011.24 1011.68 1012.06 1012.30 1012.47 1012.82 1013.14 1013.01 1013.09 1013.29 1013.56 1013.83 1014.19 1014.48 1015.12 1015.66 1016.35 1016.69 1017.41 1017.99 1018.72 1018.48 1018.68 1019.27 1019.91 1019.99 1020.01 1020.20 1020.34 1020.59 1021.05 1021.45 1021.61 1021.88 1022.18 1022.45
1011.40 1011.48 1011.46 1011.31 1011.23 1011.21 1011.13 1011.07 1011.07 1011.24 1011.42 1011.72 1012.19 1012.37 1012.42 1012.27 1012.32 1012.69 1013.12 1013.52 1013.86 1014.40 1014.72 1015.43 1015.90 1016.45 1017.08 1018.11 1017.98 1017.58 1018.38 1018.12 1018.91 1019.49 1019.86 1020.15 1020.33 1020.60 1020.85 1021.28 1021.61 1021.97 1022.22
1011.95 1011.84 1011.61 1011.40 1011.16 1011.02 1011.11 1010.92 1010.64 1010.47 1010.54 1010.71 1010.88 1011.21 1011.60 1012.00 1012.07 1012.10 1012.36 1012.78 1013.34 1013.57 1013.87 1014.23 1015.02 1015.49 1016.02 1016.81 1018.02 1017.89 1017.99 1017.62 1017.89 1018.94 1019.62 1019.85 1020.01 1020.17 1020.44 1021.05 1021.44 1021.94 1022.29
1012.24 1012.02 1011.67 1011.36 1011.00 1010.86 1010.82 1010.73 1010.43 1010.21 1010.16 1010.15 1010.32 1010.60 1010.76 1011.08 1011.39 1011.64 1011.87 1012.17 1012.49 1012.89 1012.94 1013.57 1014.27 1014.70 1014.94 1015.52 1016.06 1017.14 1017.71 1017.86 1017.94 1017.75 1018.33 1019.13 1019.81 1019.93 1020.12 1020.56 1021.10 1021.66 1022.22
1012.13 1011.97 1011.68 1011.25 1010.85 1010.71 1010.58 1010.40 1010.17 1009.93 1009.87 1009.82 1009.84 1009.90 1010.10 1010.43 1010.88 1011.19 1011.38 1011.55 1011.75 1012.12 1012.61 1012.77 1013.47 1014.25 1014.55 1015.03 1015.76 1016.01 1016.19 1016.58 1017.07 1017.41 1017.71 1018.28 1018.79 1019.29 1020.01 1020.61 1021.05 1021.31 1022.03
Wind_Speed
11 14 15 15 14 13 14 12 14 14 15 15 12 11 11 10 9 8 6 4 5 5 7 8 11 12 12 11 11 11 11 12 11 11 11 11 10 10 10 8 2 9 6
16 16 15 16 16 14 14 13 13 14 15 15 12 10 10 9 8 8 5 5 4 7 6 8 11 12 13 11 11 11 11 10 10 9 7 9 9 9 8 8 9 8 9
16 16 17 14 15 13 14 15 15 15 15 15 12 11 9 8 8 8 7 9 8 11 8 9 14 13 12 11 11 10 10 9 8 7 2 7 9 6 6 6 7 6 6
14 15 15 15 13 13 15 15 14 14 13 12 14 11 9 8 9 9 8 10 14 16 15 14 13 12 11 11 10 9 9 9 7 3 4 6 8 6 4 4 3 2 2
13 13 14 14 15 14 14 15 14 14 14 12 13 12 9 9 9 9 9 9 13 13 13 12 11 10 10 10 9 8 8 7 5 3 6 6 7 9 10 6 2 3 1
14 12 15 11 11 13 12 12 15 15 14 13 12 12 10 9 9 9 9 10 10 10 10 10 10 10 9 9 7 6 5 4 6 6 5 6 6 8 9 12 15 13 11
12 11 15 13 12 13 12 10 10 14 13 14 13 12 10 10 10 9 8 9 8 8 9 10 10 10 9 7 6 5 5 1 3 5 4 4 9 6 10 11 14 15 15
12 11 13 11 12 11 10 9 9 10 12 13 13 12 11 11 11 10 9 8 8 9 9 9 9 9 7 6 5 6 5 0 4 4 4 4 6 5 9 11 10 12 14
12 11 13 12 10 8 8 8 9 8 10 12 13 13 11 11 10 10 9 8 8 9 9 9 10 8 7 6 5 6 5 3 1 4 2 2 3 8 12 12 11 11 10
11 11 11 11 11 11 10 8 8 9 8 11 12 13 11 10 9 9 7 7 7 8 8 9 9 8 8 8 7 7 5 3 5 3 2 5 7 12 12 12 11 10 11
9 11 10 11 10 9 9 9 9 7 6 11 11 9 11 9 11 11 6 8 6 6 8 10 11 9 9 8 7 5 5 2 3 2 2 9 10 10 10 10 9 9 11
10 10 9 10 10 9 7 9 10 10 9 10 12 13 9 9 9 7 8 8 7 5 7 10 10 9 7 5 5 5 2 2 1 2 4 8 10 10 10 9 10 9 10
9 10 11 9 10 10 8 6 5 5 6 7 11 10 10 8 7 7 6 7 7 7 7 8 7 5 5 3 3 3 2 2 2 3 8 8 9 9 8 8 9 8 8
10 10 11 12 10 11 8 8 7 6 7 7 8 12 9 7 8 8 6 8 7 7 7 6 5 5 5 5 4 4 4 3 3 3 8 7 10 8 8 8 8 8 8
11 12 12 13 13 12 11 7 8 8 8 9 9 11 9 9 8 8 7 8 7 7 7 7 6 6 5 5 5 5 5 5 5 3 5 6 9 9 8 8 7 7 7
13 12 12 13 13 11 10 12 9 9 9 9 9 10 13 10 9 8 8 9 8 7 7 7 6 6 5 5 5 5 5 5 6 5 5 7 7 8 7 6 6 7 6
10 11 15 15 15 15 15 10 10 9 9 9 10 13 14 13 11 10 9 9 9 8 9 7 7 6 5 4 5 5 4 6 5 6 5 6 7 6 7 7 6 6 5
11 11 12 12 14 16 15 13 9 10 10 10 9 9 15 15 14 12 10 10 10 9 8 8 7 7 6 6 5 5 5 5 6 6 5 5 5 6 5 7 7 6 4
13 13 14 14 16 17 16 12 10 13 11 11 10 11 14 15 16 13 11 10 12 9 9 8 8 8 7 6 5 5 5 5 7 5 8 7 7 6 5 7 7 5 4
11 12 13 12 15 16 13 10 7 7 11 9 11 12 16 14 17 14 12 12 12 10 10 10 11 9 8 7 6 5 5 5 6 7 8 7 7 7 7 8 7 5 3
10 11 12 12 13 12 11 7 9 10 10 8 9 16 15 15 17 17 13 14 14 13 13 13 11 12 7 7 5 4 4 6 7 7 7 8 9 8 8 7 5 4 5
9 10 11 12 13 12 12 11 12 12 10 11 8 9 15 16 18 16 17 14 16 13 15 15 15 9 8 10 6 4 5 6 7 9 8 9 10 8 8 9 8 7 5
5 6 8 10 12 12 13 10 10 10 8 9 9 11 13 18 18 18 18 14 15 13 12 14 15 16 10 10 11 4 4 6 6 6 10 9 10 8 9 9 9 7 6
7 6 6 7 9 10 11 11 16 13 13 12 12 11 11 13 16 16 18 16 15 12 15 15 12 14 11 10 7 7 4 1 5 4 5 9 10 11 10 7 8 7 6
6 7 6 6 5 6 8 11 11 14 11 11 10 14 15 13 13 14 15 18 16 13 15 15 15 16 12 11 9 4 7 4 4 4 4 7 8 9 9 9 7 6 6
7 6 6 7 6 5 4 8 13 15 14 12 11 11 11 9 8 12 14 14 15 14 15 14 14 15 13 11 9 7 8 7 8 6 6 5 7 8 7 7 7 6 5
Wind_Direction
160 149 152 153 149 145 147 147 138 138 129 120 120 122 118 118 120 120 118 117 124 137 141 128 124 106 100 91 86 84 81 77 76 76 73 73 74 73 74 63 299 81 52
154 150 155 160 148 153 152 140 129 127 125 123 123 124 121 120 124 128 126 112 90 144 137 122 119 109 101 101 95 94 93 95 90 82 92 99 68 84 71 51 10 67 61
155 143 158 142 144 151 150 137 131 132 127 129 133 126 121 121 128 131 127 94 70 134 127 119 114 99 102 102 102 100 96 96 98 92 254 79 82 78 70 44 35 74 55
154 151 157 148 146 148 138 142 140 138 133 141 136 123 122 120 125 128 125 96 82 88 92 97 99 103 106 109 106 100 95 94 101 199 102 74 84 82 65 60 60 65 34
157 160 147 154 148 144 144 149 152 149 150 155 128 128 124 122 122 125 122 103 94 89 93 98 102 102 111 108 103 97 95 98 129 193 89 64 50 64 54 59 77 159 253
157 160 131 144 147 144 141 157 161 153 156 140 130 130 128 123 122 122 109 83 87 96 101 105 107 107 112 113 106 97 93 110 232 93 86 94 83 53 70 69 68 66 92
161 158 155 147 137 136 140 147 156 161 162 146 142 137 136 129 123 123 121 113 111 110 111 115 117 116 118 115 109 95 77 119 154 110 98 64 69 70 83 76 66 64 64
157 162 143 147 133 137 151 159 159 162 162 156 152 147 143 138 135 133 133 133 132 129 128 126 120 114 111 106 101 94 80 288 184 103 78 62 56 92 96 82 68 66 67
161 168 155 173 156 146 163 167 168 177 174 169 161 151 148 143 145 146 146 147 145 149 137 136 121 111 106 101 106 107 90 353 118 87 102 103 58 108 97 88 77 71 66
174 175 173 177 178 180 175 175 177 180 193 170 169 152 150 143 149 152 150 157 160 157 148 133 121 113 106 102 103 110 116 209 101 119 114 72 107 97 90 82 77 74 71
198 183 183 181 181 185 184 162 182 193 166 166 161 150 153 185 177 157 127 150 169 154 148 135 127 120 111 103 107 120 223 117 140 142 124 107 102 99 89 82 79 79 73
191 198 191 190 189 189 188 173 191 180 192 184 182 176 197 192 185 198 151 170 175 177 173 138 136 139 202 154 140 188 195 159 167 148 100 120 113 103 101 102 92 88 84
199 199 210 202 197 197 192 194 193 195 199 199 202 194 197 191 176 202 174 182 182 187 173 167 166 195 183 176 170 168 157 182 161 156 107 135 123 117 111 111 105 99 93
208 210 208 206 209 214 203 200 200 203 198 205 203 201 195 196 198 200 197 198 192 191 188 197 189 176 178 186 183 178 178 185 180 182 115 129 125 123 126 119 111 104 94
215 217 214 213 211 211 217 218 210 205 201 205 209 208 209 207 203 204 202 201 204 195 196 195 192 182 186 181 182 193 186 186 181 173 130 112 122 134 136 130 124 118 110
216 214 219 220 221 221 220 213 229 212 212 209 208 214 211 216 211 206 197 201 205 200 202 201 197 192 186 193 188 200 191 189 184 179 153 138 118 133 142 140 134 130 122
234 232 219 212 216 213 218 219 224 234 221 214 215 212 214 216 214 209 205 201 204 202 201 202 196 193 186 192 198 197 198 193 192 180 181 152 142 122 158 152 141 140 127
251 244 241 228 219 218 223 222 216 222 226 223 221 221 213 215 214 212 213 209 207 198 200 197 193 196 199 196 192 189 199 199 198 192 185 180 183 162 149 158 150 146 148
249 245 238 236 230 227 224 224 220 224 222 230 214 215 218 214 215 217 216 211 207 203 201 199 195 200 198 198 198 186 197 201 202 195 198 190 182 192 182 131 131 128 143
259 255 249 238 236 237 232 222 215 223 226 228 228 224 216 215 212 216 213 215 208 205 203 197 197 200 206 194 188 192 193 209 210 207 199 197 185 192 199 177 170 150 125
263 256 244 245 240 239 234 219 214 215 226 218 228 228 220 219 213 211 214 211 208 208 205 199 196 193 193 188 163 191 204 219 218 213 210 204 194 199 197 196 205 194 166
269 263 258 248 241 236 237 226 226 225 233 233 226 227 233 223 219 215 213 211 207 208 206 201 194 190 197 188 197 174 202 199 222 216 211 212 206 200 205 203 204 206 202
333 306 272 262 256 248 242 245 237 234 233 227 222 229 222 229 221 217 219 209 211 206 205 204 197 190 187 194 206 200 176 225 164 185 214 213 213 207 209 204 206 201 203
16 354 327 292 267 250 244 242 235 230 230 232 239 230 231 224 235 225 223 216 211 209 206 203 198 200 189 192 197 228 252 35 202 182 214 214 218 214 209 203 205 200 203
2 355 342 326 315 273 251 235 242 241 247 245 241 244 242 230 220 226 218 224 215 210 215 201 200 203 208 195 195 159 212 215 240 236 182 194 213 218 213 206 199 196 198
5 353 346 340 341 346 294 245 236 240 243 248 243 245 246 239 228 225 225 219 220 214 216 208 204 204 204 215 205 187 190 186 202 199 226 186 208 195 200 204 203 195 190